Air Resources Laboratory banner image
Air Resources Laboratory web site National Oceanic and Atmospheric Administration (NOAA)

wv roundup


Office: RLX

ASUS41 KRLX 211010
RWRRLX
Regional Weather Roundup
National Weather Service Charleston WV
600 AM EDT SUN OCT 21 2018

Note: "fair" indicates few or no clouds below 12,000 feet with no
significant weather and/or obstructions to visibility.

WVZ003-211100-
Northern Panhandle of West Virginia

CITY           SKY/WX    TMP DP  RH WIND       PRES   REMARKS
WHEELING       CLOUDY    36  29  75 W12G20    30.15R
$$

WVZ009-211100-
Northwest West Virginia

CITY           SKY/WX    TMP DP  RH WIND       PRES   REMARKS
PARKERSBURG    CLOUDY    37  25  61 W13       30.27R
$$

WVZ006-211100-
Western West Virginia

CITY           SKY/WX    TMP DP  RH WIND       PRES   REMARKS
HUNTINGTON     CLOUDY    38  29  70 NW8G20    30.27R
$$

WVZ015-211100-
West Central West Virginia

CITY           SKY/WX    TMP DP  RH WIND       PRES   REMARKS
CHARLESTON     CLOUDY    39  31  72 NW12G17   30.24R
$$

WVZ022-031-211100-
North Central West Virginia

CITY           SKY/WX    TMP DP  RH WIND       PRES   REMARKS
MORGANTOWN     CLOUDY    38  32  79 W8        30.14R
CLARKSBURG     CLOUDY    40  32  73 NW9       30.15R
BUCKHANNON     CLOUDY    37  32  81 VRB7      30.15R
$$

WVZ025-035-042-045-211100-
Southern West Virginia

CITY           SKY/WX    TMP DP  RH WIND       PRES   REMARKS
BECKLEY        MIX PCPN  32  28  85 NW15G26   30.16R
LOGAN          NOT AVBL
PINEVILLE      CLOUDY    37  31  76 MISG      30.24R
BLUEFIELD      CLOUDY    32  28  85 NW13G21   30.12R
LEWISBURG      FAIR      35  28  75 N9G20     30.10R
$$

WVZ047-211100-
Northern Mountains of West Virginia

CITY           SKY/WX    TMP DP  RH WIND       PRES   REMARKS
ELKINS         CLOUDY    35  30  82 W13G24    30.10R
$$

WVZ052-211100-
Eastern Panhandle of West Virginia

CITY           SKY/WX    TMP DP  RH WIND       PRES   REMARKS
MARTINSBURG    FAIR      43  33  68 NW21G29   29.97R
PETERSBURG     FAIR      40  31  70 NW9G22    30.06R
$$

Southeast Ohio/Northeast Kentucky

CITY           SKY/WX    TMP DP  RH WIND       PRES   REMARKS
ATHENS         CLOUDY    36  26  67 N3        30.26R
ASHLAND        FAIR      37  29  72 W9        30.31R
$$